Home > Weather > Constanța > Past weeks

Flag for Romania Past Weather in Constanța, Romania — Yesterday and Last 2 Weeks

Now
80 °F

Sunny.


Feels Like: 82 °F
Forecast: 66 / 87 °F
Wind: 2 mph from Southeast

Location: Constanta

Current Time: Jul 25, 2016 at 8:59:36 PM

Latest Report: Jul 25, 2016 at 8:00 PM


Visibility: 6 mi

Pressure: 29.96 "Hg

Humidity: 63%

Dew Point: 66 °F

Location of ConstanțaLocation

Past Weather in Constanța — Graph

°F

Constanța Temperature Yesterday

Maximum temperature yesterday: 83 °F (at 1:00 PM)
Minimum temperature yesterday: 72 °F (at 5:00 AM)
Average temperature yesterday: 78 °F

High & Low Weather Summary for the Past Weeks

 TemperatureHumidityPressure
High88 °F (Jul 22, 3:00 PM)95% (Jul 14, 6:00 AM)30.09 "Hg (Jul 14, 6:00 AM)
Low64 °F (Jul 21, 7:00 AM)26% (Jul 22, 1:00 PM)29.74 "Hg (Jul 17, 7:00 PM)
Average76 °F64%29.92 "Hg
* Reported Jul 10 7:00 PM — Jul 25 7:00 PM, Constanța, Weather by CustomWeather, © 2016

Note: Actual official high and low records may vary slightly from our data, if they occured in-between our weather recording intervals... More about our weather records

Advertising

Constanța Weather History for the Previous 24 Hours

Scroll right to see more
 ConditionsComfort  
Time TempWeatherWind HumidityBarometerVisibility
7:00 PM
Mon, Jul 25
81 °FSunny.2 mph62%29.95 "Hg6 mi
6:00 PM81 °FSunny.3 mph65%29.96 "Hg6 mi
5:00 PM82 °FSunny.2 mph65%29.97 "Hg6 mi
4:00 PM84 °FPassing clouds.No wind61%29.98 "Hg6 mi
3:00 PM82 °FPassing clouds.2 mph63%29.97 "Hg6 mi
2:00 PM82 °FSunny.3 mph62%29.97 "Hg6 mi
1:00 PM84 °FSunny.1 mph55%29.97 "Hg6 mi
12:00 PM84 °FSunny.1 mph59%29.98 "Hg6 mi
11:00 AM82 °FSunny.1 mph60%29.98 "Hg6 mi
10:00 AM81 °FSunny.1 mph60%29.98 "Hg6 mi
9:00 AM79 °FSunny.1 mph60%29.98 "Hg6 mi
8:00 AM74 °FSunny.1 mph63%29.97 "Hg6 mi
7:00 AM69 °FSunny.1 mph67%29.97 "Hg6 mi
6:00 AM69 °FSunny.1 mph68%29.96 "Hg6 mi
5:00 AM70 °FMild.No wind72%29.96 "HgN/A
4:00 AM71 °FClear.1 mph67%29.97 "Hg6 mi
3:00 AM73 °FClear.1 mph60%29.97 "Hg6 mi
2:00 AM73 °FClear.No wind59%29.97 "Hg6 mi
1:00 AM75 °FClear.2 mph55%29.98 "Hg6 mi
12:00 AM77 °FClear.2 mph51%29.97 "Hg6 mi
11:00 PM
Sun, Jul 24
78 °FClear.1 mph50%29.97 "Hg6 mi
10:00 PM79 °FClear.1 mph49%29.97 "Hg6 mi
9:00 PM80 °FClear.1 mph50%29.96 "Hg6 mi
8:00 PM82 °FPassing clouds.1 mph44%29.95 "Hg6 mi
Weather by CustomWeather, © 2016

See weather overviewHow to use our weather pages